ICEYE-X40 (60549 NORAD) Tracking and Keplerian Element Data

This shows tracking and keplerian element data for the satellite.

Feedback or suggestion? Click here.




ElementValue
Catalog60549
NameICEYE-X40
Epoch Orbit849
Epoch Day286.79793595
Epoch Year2024
RAAN1.3816
Inclination97.7399
Eccentricity0.0004806
Argument of Perigee336.9436
Mean Anonmoly23.1568
Mean Motion14.9368533
Decay Rate0.0001095
L11 60549U 24149CK 24286.79793595 .00010950 00000+0 10394-2 0 9993
L22 60549 97.7399 1.3816 0004806 336.9436 23.1568 14.93685330 8499



Live tracking and technical data element details for ICEYE-X40 (NORAD 60549). ICEYE-X40 can be tracked NOW for your location showing map with azimuth and elevation plus other details from your city location.







IsCatalogInMostPopularTable: catalog: 60549, numindb: 5
Update: records affected: 1



GetName: 60549 ICEYE-X40

Hit Count: updated at: Fri, 06 Dec 2024 10:31:11 GMT